| time (UTC) | temp F | wind direction | speed MPH | gust MPH | rain 1hr in | rain 24hr in | rain mn in | humidity % | barometer mb |
| 20260509161718 | 52 | 335 | 0.0 | 1.0 | 0.00 | 0.00 | 0.00 | 87 | 1010.0 |
| 20260509161214 | 52 | 359 | 0.0 | 0.0 | 0.00 | 0.00 | 0.00 | 86 | 1010.1 |
| 20260509160709 | 52 | 350 | 0.0 | 2.0 | 0.00 | 0.00 | 0.00 | 86 | 1010.2 |
| 20260509160206 | 52 | 262 | 0.0 | 0.0 | 0.00 | 0.00 | 0.00 | 86 | 1010.2 |
| 20260509155701 | 52 | 330 | 0.0 | 0.0 | 0.00 | 0.00 | 0.00 | 85 | 1010.4 |
| 20260509155158 | 53 | 18 | 0.0 | 0.0 | 0.00 | 0.00 | 0.00 | 84 | 1010.2 |
| 20260509154654 | 54 | 107 | 0.0 | 0.0 | 0.00 | 0.00 | 0.00 | 83 | 1010.3 |
| 20260509154151 | 54 | 124 | 0.0 | 0.0 | 0.00 | 0.00 | 0.00 | 83 | 1010.2 |
| 20260509153648 | 53 | 72 | 0.0 | 0.0 | 0.00 | 0.00 | 0.00 | 83 | 1010.2 |
| 20260509153145 | 53 | 82 | 0.0 | 0.0 | 0.00 | 0.00 | 0.00 | 83 | 1010.4 |
| 20260509152640 | 53 | 82 | 0.0 | 0.0 | 0.00 | 0.00 | 0.00 | 84 | 1010.3 |
| 20260509152138 | 53 | 90 | 0.0 | 0.0 | 0.00 | 0.00 | 0.00 | 83 | 1010.5 |
| 20260509151634 | 53 | 224 | 0.0 | 0.0 | 0.00 | 0.00 | 0.00 | 83 | 1010.5 |
| 20260509151132 | 53 | 346 | 0.0 | 0.0 | 0.00 | 0.00 | 0.00 | 83 | 1010.6 |
| 20260509150630 | 53 | 354 | 0.0 | 0.0 | 0.00 | 0.00 | 0.00 | 83 | 1010.7 |
| 20260509150128 | 53 | 346 | 0.0 | 0.0 | 0.00 | 0.00 | 0.00 | 83 | 1010.6 |
| 20260509145624 | 53 | 315 | 0.0 | 0.0 | 0.00 | 0.00 | 0.00 | 83 | 1010.6 |
| 20260509145119 | 52 | 303 | 0.0 | 0.0 | 0.00 | 0.00 | 0.00 | 83 | 1010.6 |
| 20260509144616 | 52 | 311 | 0.0 | 0.0 | 0.00 | 0.00 | 0.00 | 83 | 1010.7 |
| 20260509144113 | 52 | 295 | 0.0 | 0.0 | 0.00 | 0.00 | 0.00 | 83 | 1010.6 |
| 20260509143610 | 51 | 355 | 0.0 | 0.0 | 0.00 | 0.00 | 0.00 | 83 | 1010.5 |
| 20260509143108 | 51 | 338 | 0.0 | 1.0 | 0.00 | 0.00 | 0.00 | 82 | 1010.7 |
| 20260509142602 | 52 | 352 | 0.0 | 0.0 | 0.00 | 0.00 | 0.00 | 82 | 1010.8 |
| 20260509142059 | 51 | 266 | 0.0 | 0.0 | 0.00 | 0.00 | 0.00 | 83 | 1010.7 |
| 20260509141555 | 50 | 12 | 0.0 | 1.0 | 0.00 | 0.00 | 0.00 | 83 | 1010.7 |
| 20260509141052 | 50 | 19 | 0.0 | 1.0 | 0.00 | 0.00 | 0.00 | 84 | 1010.8 |
| 20260509140549 | 50 | 58 | 0.0 | 1.0 | 0.00 | 0.00 | 0.00 | 85 | 1010.9 |
| 20260509140047 | 49 | 10 | 0.0 | 0.0 | 0.00 | 0.00 | 0.00 | 85 | 1011.0 |
| 20260509135543 | 49 | 19 | 0.0 | 0.0 | 0.00 | 0.00 | 0.00 | 84 | 1011.0 |
| 20260509135041 | 49 | 32 | 0.0 | 0.0 | 0.00 | 0.00 | 0.00 | 85 | 1011.1 |
| 20260509134538 | 48 | 75 | 0.0 | 0.0 | 0.00 | 0.00 | 0.00 | 85 | 1011.2 |
| 20260509134036 | 48 | 15 | 0.0 | 0.0 | 0.00 | 0.00 | 0.00 | 85 | 1011.1 |
| 20260509133532 | 48 | 15 | 0.0 | 0.0 | 0.00 | 0.00 | 0.00 | 84 | 1011.2 |
| 20260509133030 | 47 | 30 | 0.0 | 0.0 | 0.00 | 0.00 | 0.00 | 84 | 1011.2 |
| 20260509132528 | 47 | 22 | 0.0 | 0.0 | 0.00 | 0.00 | 0.00 | 84 | 1011.1 |
| 20260509132026 | 46 | 330 | 0.0 | 0.0 | 0.00 | 0.00 | 0.00 | 84 | 1011.2 |
| 20260509131521 | 46 | 15 | 0.0 | 1.0 | 0.00 | 0.00 | 0.00 | 85 | 1011.3 |
| 20260509131018 | 46 | 341 | 0.0 | 0.0 | 0.00 | 0.00 | 0.00 | 86 | 1011.3 |
| 20260509130514 | 46 | 343 | 0.0 | 0.0 | 0.00 | 0.00 | 0.00 | 86 | 1011.0 |
| 20260509130011 | 45 | 348 | 0.0 | 0.0 | 0.00 | 0.00 | 0.00 | 86 | 1011.0 |
| 20260509125507 | 45 | 350 | 0.0 | 0.0 | 0.00 | 0.00 | 0.00 | 87 | 1011.0 |
| 20260509125003 | 45 | 352 | 0.0 | 0.0 | 0.00 | 0.00 | 0.00 | 88 | 1011.2 |
| 20260509124455 | 44 | 27 | 0.0 | 0.0 | 0.00 | 0.00 | 0.00 | 88 | 1011.1 |
| 20260509123952 | 44 | 359 | 0.0 | 0.0 | 0.00 | 0.00 | 0.00 | 89 | 1011.0 |
| 20260509123450 | 44 | 26 | 0.0 | 0.0 | 0.00 | 0.00 | 0.00 | 89 | 1011.0 |
| 20260509122945 | 44 | 25 | 0.0 | 0.0 | 0.00 | 0.00 | 0.00 | 89 | 1011.3 |
| 20260509122442 | 43 | 20 | 0.0 | 0.0 | 0.00 | 0.00 | 0.00 | 89 | 1011.2 |
| 20260509121940 | 43 | 25 | 0.0 | 0.0 | 0.00 | 0.00 | 0.00 | 89 | 1011.1 |
| 20260509121436 | 43 | 28 | 0.0 | 0.0 | 0.00 | 0.00 | 0.00 | 90 | 1011.2 |
| 20260509120934 | 43 | 30 | 0.0 | 0.0 | 0.00 | 0.00 | 0.00 | 90 | 1011.4 |
| 20260509120432 | 43 | 31 | 0.0 | 0.0 | 0.00 | 0.00 | 0.00 | 89 | 1011.3 |
| 20260509115930 | 42 | 55 | 0.0 | 0.0 | 0.00 | 0.00 | 0.00 | 89 | 1011.2 |
| 20260509115427 | 42 | 79 | 0.0 | 0.0 | 0.00 | 0.00 | 0.00 | 89 | 1011.4 |
| 20260509114924 | 42 | 126 | 0.0 | 0.0 | 0.00 | 0.00 | 0.00 | 89 | 1011.6 |
| 20260509114422 | 42 | 134 | 0.0 | 0.0 | 0.00 | 0.00 | 0.00 | 89 | 1011.6 |
| 20260509113922 | 42 | 95 | 0.0 | 0.0 | 0.00 | 0.00 | 0.00 | 90 | 1011.6 |
| 20260509113418 | 42 | 187 | 0.0 | 0.0 | 0.00 | 0.00 | 0.00 | 90 | 1011.6 |
| 20260509112915 | 42 | 53 | 0.0 | 0.0 | 0.00 | 0.00 | 0.00 | 90 | 1011.6 |
| 20260509112412 | 42 | 74 | 0.0 | 0.0 | 0.00 | 0.00 | 0.00 | 92 | 1011.6 |
| 20260509111904 | 42 | 40 | 0.0 | 0.0 | 0.00 | 0.00 | 0.00 | 92 | 1011.5 |
| 20260509111400 | 42 | 146 | 0.0 | 0.0 | 0.00 | 0.00 | 0.00 | 92 | 1011.9 |
| 20260509110858 | 41 | 17 | 0.0 | 0.0 | 0.00 | 0.00 | 0.00 | 92 | 1011.6 |
| 20260509110354 | 41 | 26 | 0.0 | 0.0 | 0.00 | 0.00 | 0.00 | 93 | 1011.6 |
| 20260509105853 | 40 | 25 | 0.0 | 0.0 | 0.00 | 0.00 | 0.00 | 93 | 1011.6 |
| 20260509105350 | 40 | 24 | 0.0 | 0.0 | 0.00 | 0.00 | 0.00 | 93 | 1011.5 |
| 20260509104847 | 40 | 8 | 0.0 | 0.0 | 0.00 | 0.00 | 0.00 | 94 | 1011.7 |
| 20260509104343 | 40 | 76 | 0.0 | 0.0 | 0.00 | 0.00 | 0.00 | 94 | 1011.7 |
| 20260509103841 | 39 | 93 | 0.0 | 0.0 | 0.00 | 0.00 | 0.00 | 94 | 1011.7 |
| 20260509103338 | 39 | 77 | 0.0 | 0.0 | 0.00 | 0.00 | 0.00 | 94 | 1011.5 |
| 20260509102837 | 39 | 78 | 0.0 | 0.0 | 0.00 | 0.00 | 0.00 | 94 | 1011.6 |
| 20260509102334 | 39 | 78 | 0.0 | 0.0 | 0.00 | 0.00 | 0.00 | 94 | 1011.6 |
| 20260509101829 | 39 | 78 | 0.0 | 0.0 | 0.00 | 0.00 | 0.00 | 94 | 1011.6 |
| 20260509101325 | 38 | 113 | 0.0 | 0.0 | 0.00 | 0.00 | 0.00 | 94 | 1011.5 |
| 20260509100824 | 38 | 119 | 0.0 | 0.0 | 0.00 | 0.00 | 0.00 | 94 | 1011.5 |
| 20260509100321 | 38 | 117 | 0.0 | 0.0 | 0.00 | 0.00 | 0.00 | 94 | 1011.4 |
| 20260509095817 | 38 | 85 | 0.0 | 0.0 | 0.00 | 0.00 | 0.00 | 94 | 1011.3 |
| 20260509095314 | 38 | 113 | 0.0 | 0.0 | 0.00 | 0.00 | 0.00 | 94 | 1011.2 |
| 20260509094812 | 38 | 112 | 0.0 | 0.0 | 0.00 | 0.00 | 0.00 | 94 | 1011.2 |
| 20260509094308 | 38 | 112 | 0.0 | 0.0 | 0.00 | 0.00 | 0.00 | 94 | 1011.2 |
| 20260509093806 | 38 | 106 | 0.0 | 0.0 | 0.00 | 0.00 | 0.00 | 94 | 1011.2 |
| 20260509093303 | 38 | 106 | 0.0 | 0.0 | 0.00 | 0.00 | 0.00 | 94 | 1011.3 |
| 20260509092801 | 38 | 108 | 0.0 | 0.0 | 0.00 | 0.00 | 0.00 | 94 | 1011.3 |
| 20260509092259 | 38 | 108 | 0.0 | 0.0 | 0.00 | 0.00 | 0.00 | 94 | 1011.4 |
| 20260509091757 | 38 | 108 | 0.0 | 0.0 | 0.00 | 0.00 | 0.00 | 94 | 1011.4 |
| 20260509091253 | 38 | 106 | 0.0 | 0.0 | 0.00 | 0.00 | 0.00 | 93 | 1011.2 |
| 20260509090751 | 38 | 106 | 0.0 | 0.0 | 0.00 | 0.00 | 0.00 | 93 | 1011.5 |
| 20260509090247 | 38 | 124 | 0.0 | 0.0 | 0.00 | 0.00 | 0.00 | 93 | 1011.6 |
| 20260509085745 | 38 | 132 | 0.0 | 0.0 | 0.00 | 0.00 | 0.00 | 93 | 1011.7 |
| 20260509085242 | 38 | 141 | 0.0 | 0.0 | 0.00 | 0.00 | 0.00 | 93 | 1011.8 |
| 20260509084739 | 38 | 141 | 0.0 | 0.0 | 0.00 | 0.00 | 0.00 | 94 | 1011.9 |
| 20260509084235 | 38 | 142 | 0.0 | 0.0 | 0.00 | 0.00 | 0.00 | 94 | 1011.9 |
| 20260509083733 | 38 | 142 | 0.0 | 0.0 | 0.00 | 0.00 | 0.00 | 94 | 1011.9 |
| 20260509083230 | 38 | 142 | 0.0 | 0.0 | 0.00 | 0.00 | 0.00 | 93 | 1011.8 |
| 20260509082726 | 38 | 142 | 0.0 | 0.0 | 0.00 | 0.00 | 0.00 | 93 | 1011.9 |
| 20260509082223 | 38 | 142 | 0.0 | 0.0 | 0.00 | 0.00 | 0.00 | 93 | 1012.0 |
| 20260509081720 | 38 | 142 | 0.0 | 0.0 | 0.00 | 0.00 | 0.00 | 93 | 1012.0 |
| 20260509081217 | 38 | 142 | 0.0 | 0.0 | 0.00 | 0.00 | 0.00 | 92 | 1012.0 |
| 20260509080715 | 38 | 142 | 0.0 | 0.0 | 0.00 | 0.00 | 0.00 | 92 | 1012.0 |
| 20260509080213 | 38 | 142 | 0.0 | 0.0 | 0.00 | 0.00 | 0.00 | 92 | 1012.0 |
| 20260509075711 | 38 | 145 | 0.0 | 0.0 | 0.00 | 0.00 | 0.00 | 92 | 1012.0 |
| 20260509075208 | 38 | 150 | 0.0 | 0.0 | 0.00 | 0.00 | 0.00 | 92 | 1012.3 |
| 20260509074705 | 38 | 153 | 0.0 | 0.0 | 0.00 | 0.00 | 0.00 | 92 | 1012.3 |
| 20260509074202 | 38 | 153 | 0.0 | 0.0 | 0.00 | 0.00 | 0.00 | 92 | 1012.3 |
| 20260509073653 | 39 | 153 | 0.0 | 0.0 | 0.00 | 0.00 | 0.00 | 92 | 1012.3 |
| 20260509073149 | 39 | 159 | 0.0 | 0.0 | 0.00 | 0.00 | 0.00 | 92 | 1012.4 |
| 20260509072647 | 38 | 159 | 0.0 | 0.0 | 0.00 | 0.00 | 0.00 | 91 | 1012.3 |
| 20260509072143 | 39 | 159 | 0.0 | 0.0 | 0.00 | 0.00 | 0.00 | 91 | 1012.1 |
| 20260509071640 | 39 | 159 | 0.0 | 0.0 | 0.00 | 0.00 | 0.00 | 91 | 1012.2 |
| 20260509071137 | 39 | 159 | 0.0 | 0.0 | 0.00 | 0.00 | 0.00 | 91 | 1012.1 |
| 20260509070634 | 39 | 159 | 0.0 | 0.0 | 0.00 | 0.00 | 0.00 | 91 | 1012.2 |
| 20260509070131 | 39 | 159 | 0.0 | 0.0 | 0.00 | 0.00 | 0.00 | 91 | 1012.2 |
| 20260509065626 | 39 | 159 | 0.0 | 0.0 | 0.00 | 0.00 | 0.00 | 91 | 1012.2 |
| 20260509065123 | 39 | 165 | 0.0 | 0.0 | 0.00 | 0.00 | 0.00 | 90 | 1012.2 |
| 20260509064619 | 39 | 158 | 0.0 | 0.0 | 0.00 | 0.00 | 0.00 | 90 | 1012.2 |
| 20260509064118 | 39 | 158 | 0.0 | 0.0 | 0.00 | 0.00 | 0.00 | 89 | 1012.3 |
| 20260509063614 | 39 | 160 | 0.0 | 0.0 | 0.00 | 0.00 | 0.00 | 89 | 1012.4 |
| 20260509063110 | 39 | 160 | 0.0 | 0.0 | 0.00 | 0.00 | 0.00 | 90 | 1012.4 |
| 20260509062608 | 39 | 139 | 0.0 | 0.0 | 0.00 | 0.00 | 0.00 | 89 | 1012.6 |
| 20260509062105 | 39 | 140 | 0.0 | 0.0 | 0.00 | 0.00 | 0.00 | 90 | 1012.4 |
| 20260509061602 | 39 | 136 | 0.0 | 0.0 | 0.00 | 0.00 | 0.00 | 90 | 1012.5 |
| 20260509061059 | 39 | 136 | 0.0 | 0.0 | 0.00 | 0.00 | 0.00 | 90 | 1012.7 |
| 20260509060557 | 39 | 136 | 0.0 | 0.0 | 0.00 | 0.00 | 0.00 | 89 | 1012.6 |
| 20260509060052 | 39 | 136 | 0.0 | 0.0 | 0.00 | 0.00 | 0.00 | 89 | 1012.8 |
| 20260509055547 | 39 | 136 | 0.0 | 0.0 | 0.00 | 0.00 | 0.00 | 89 | 1013.0 |
| 20260509055043 | 39 | 139 | 0.0 | 0.0 | 0.00 | 0.00 | 0.00 | 90 | 1013.0 |
| 20260509054540 | 39 | 139 | 0.0 | 0.0 | 0.00 | 0.00 | 0.00 | 89 | 1013.0 |
| 20260509054033 | 39 | 139 | 0.0 | 0.0 | 0.00 | 0.00 | 0.00 | 89 | 1013.0 |
| 20260509053532 | 39 | 142 | 0.0 | 0.0 | 0.00 | 0.00 | 0.00 | 89 | 1013.1 |
| 20260509053028 | 39 | 137 | 0.0 | 0.0 | 0.00 | 0.00 | 0.00 | 89 | 1013.1 |
| 20260509052526 | 39 | 137 | 0.0 | 0.0 | 0.00 | 0.00 | 0.00 | 90 | 1013.1 |
| 20260509052024 | 39 | 138 | 0.0 | 0.0 | 0.00 | 0.00 | 0.00 | 90 | 1013.1 |
| 20260509051521 | 39 | 138 | 0.0 | 0.0 | 0.00 | 0.00 | 0.00 | 90 | 1013.2 |
| 20260509051012 | 39 | 138 | 0.0 | 0.0 | 0.00 | 0.00 | 0.00 | 90 | 1013.3 |
| 20260509050509 | 39 | 138 | 0.0 | 0.0 | 0.00 | 0.00 | 0.00 | 90 | 1013.3 |
| 20260509050006 | 39 | 138 | 0.0 | 0.0 | 0.00 | 0.00 | 0.00 | 90 | 1013.3 |
| 20260509045503 | 39 | 146 | 0.0 | 0.0 | 0.00 | 0.00 | 0.00 | 90 | 1013.5 |
| 20260509045000 | 39 | 141 | 0.0 | 0.0 | 0.00 | 0.00 | 0.00 | 90 | 1013.5 |
| 20260509044458 | 38 | 142 | 0.0 | 0.0 | 0.00 | 0.00 | 0.00 | 90 | 1013.4 |
| 20260509043954 | 38 | 139 | 0.0 | 0.0 | 0.00 | 0.00 | 0.00 | 90 | 1013.5 |
| 20260509043450 | 38 | 143 | 0.0 | 0.0 | 0.00 | 0.00 | 0.00 | 91 | 1013.5 |
| 20260509042946 | 38 | 142 | 0.0 | 0.0 | 0.00 | 0.00 | 0.00 | 90 | 1013.5 |
| 20260509042443 | 38 | 140 | 0.0 | 0.0 | 0.00 | 0.00 | 0.00 | 90 | 1013.5 |
| 20260509041939 | 38 | 131 | 0.0 | 0.0 | 0.00 | 0.00 | 0.00 | 90 | 1013.6 |
| 20260509041436 | 38 | 133 | 0.0 | 0.0 | 0.00 | 0.00 | 0.00 | 90 | 1013.5 |
| 20260509040934 | 38 | 134 | 0.0 | 0.0 | 0.00 | 0.00 | 0.00 | 90 | 1013.6 |
| 20260509040432 | 38 | 122 | 0.0 | 0.0 | 0.00 | 0.00 | 0.00 | 90 | 1013.6 |
| 20260509035928 | 38 | 108 | 0.0 | 0.0 | 0.00 | 0.09 | 0.09 | 90 | 1013.4 |
| 20260509035425 | 37 | 107 | 0.0 | 0.0 | 0.00 | 0.09 | 0.09 | 90 | 1013.5 |
| 20260509034922 | 37 | 106 | 0.0 | 0.0 | 0.00 | 0.09 | 0.09 | 90 | 1013.6 |
| 20260509034420 | 37 | 106 | 0.0 | 0.0 | 0.00 | 0.09 | 0.09 | 90 | 1013.5 |
| 20260509033916 | 37 | 106 | 0.0 | 0.0 | 0.00 | 0.09 | 0.09 | 89 | 1013.6 |
| 20260509033413 | 37 | 107 | 0.0 | 0.0 | 0.00 | 0.09 | 0.09 | 89 | 1013.7 |
| 20260509032910 | 37 | 106 | 0.0 | 0.0 | 0.00 | 0.09 | 0.09 | 89 | 1013.6 |
| 20260509032408 | 38 | 105 | 0.0 | 0.0 | 0.00 | 0.09 | 0.09 | 89 | 1013.3 |
| 20260509031906 | 38 | 103 | 0.0 | 0.0 | 0.00 | 0.09 | 0.09 | 89 | 1013.5 |
| 20260509031403 | 38 | 103 | 0.0 | 0.0 | 0.00 | 0.09 | 0.09 | 89 | 1013.5 |
| 20260509030900 | 38 | 97 | 0.0 | 0.0 | 0.00 | 0.09 | 0.09 | 88 | 1013.6 |
| 20260509030358 | 38 | 93 | 0.0 | 0.0 | 0.00 | 0.09 | 0.09 | 88 | 1013.5 |
| 20260509025855 | 38 | 93 | 0.0 | 0.0 | 0.00 | 0.09 | 0.09 | 88 | 1013.6 |
| 20260509025350 | 38 | 93 | 0.0 | 0.0 | 0.00 | 0.09 | 0.09 | 88 | 1013.8 |
| 20260509024845 | 38 | 93 | 0.0 | 0.0 | 0.00 | 0.09 | 0.09 | 88 | 1013.7 |
| 20260509024341 | 38 | 93 | 0.0 | 0.0 | 0.00 | 0.09 | 0.09 | 87 | 1013.8 |
| 20260509023839 | 39 | 100 | 0.0 | 0.0 | 0.00 | 0.09 | 0.09 | 87 | 1013.7 |
| 20260509023336 | 39 | 100 | 0.0 | 0.0 | 0.00 | 0.09 | 0.09 | 86 | 1013.8 |
| 20260509022827 | 39 | 100 | 0.0 | 0.0 | 0.00 | 0.09 | 0.09 | 86 | 1013.8 |
| 20260509022324 | 40 | 96 | 0.0 | 0.0 | 0.00 | 0.09 | 0.09 | 86 | 1013.8 |
| 20260509021821 | 40 | 90 | 0.0 | 0.0 | 0.00 | 0.09 | 0.09 | 85 | 1013.7 |
| 20260509021318 | 40 | 85 | 0.0 | 0.0 | 0.00 | 0.09 | 0.09 | 85 | 1013.5 |
| 20260509020815 | 40 | 85 | 0.0 | 0.0 | 0.00 | 0.09 | 0.09 | 85 | 1013.8 |
| 20260509020313 | 40 | 85 | 0.0 | 0.0 | 0.00 | 0.09 | 0.09 | 86 | 1013.9 |
| 20260509015805 | 41 | 92 | 0.0 | 0.0 | 0.00 | 0.09 | 0.09 | 85 | 1013.8 |
| 20260509015306 | 41 | 92 | 0.0 | 0.0 | 0.00 | 0.09 | 0.09 | 84 | 1013.8 |
| 20260509014759 | 41 | 92 | 0.0 | 0.0 | 0.00 | 0.09 | 0.09 | 84 | 1013.6 |
| 20260509014257 | 42 | 91 | 0.0 | 0.0 | 0.00 | 0.09 | 0.09 | 83 | 1013.5 |
| 20260509013753 | 42 | 90 | 0.0 | 0.0 | 0.00 | 0.09 | 0.09 | 84 | 1013.7 |
| 20260509013248 | 42 | 90 | 0.0 | 0.0 | 0.00 | 0.09 | 0.09 | 83 | 1013.5 |
| 20260509012745 | 42 | 89 | 0.0 | 0.0 | 0.00 | 0.09 | 0.09 | 82 | 1013.5 |
| 20260509012242 | 42 | 90 | 0.0 | 0.0 | 0.00 | 0.09 | 0.09 | 82 | 1013.3 |
| 20260509011739 | 43 | 93 | 0.0 | 0.0 | 0.00 | 0.09 | 0.09 | 81 | 1013.4 |
| 20260509011237 | 43 | 109 | 0.0 | 0.0 | 0.00 | 0.09 | 0.09 | 80 | 1013.1 |
| 20260509010734 | 43 | 127 | 0.0 | 0.0 | 0.00 | 0.09 | 0.09 | 80 | 1013.2 |
| 20260509010231 | 44 | 128 | 0.0 | 0.0 | 0.00 | 0.09 | 0.09 | 79 | 1012.9 |
| 20260509005728 | 44 | 147 | 0.0 | 1.0 | 0.00 | 0.09 | 0.09 | 77 | 1013.0 |
| 20260509005225 | 45 | 129 | 0.0 | 0.0 | 0.00 | 0.09 | 0.09 | 76 | 1012.7 |
| 20260509004719 | 45 | 121 | 0.0 | 0.0 | 0.00 | 0.09 | 0.09 | 75 | 1012.9 |
| 20260509004217 | 45 | 115 | 0.0 | 0.0 | 0.00 | 0.09 | 0.09 | 74 | 1013.1 |
| 20260509003715 | 46 | 115 | 0.0 | 0.0 | 0.00 | 0.09 | 0.09 | 72 | 1012.7 |
| 20260509003212 | 46 | 113 | 0.0 | 0.0 | 0.00 | 0.09 | 0.09 | 71 | 1012.9 |
| 20260509002709 | 47 | 106 | 0.0 | 0.0 | 0.00 | 0.09 | 0.09 | 68 | 1012.6 |
| 20260509002207 | 47 | 99 | 0.0 | 0.0 | 0.00 | 0.09 | 0.09 | 66 | 1012.7 |
| 20260509001659 | 48 | 77 | 0.0 | 0.0 | 0.00 | 0.09 | 0.09 | 64 | 1012.5 |
| 20260509001155 | 49 | 73 | 0.0 | 0.0 | 0.00 | 0.09 | 0.09 | 61 | 1012.6 |
| 20260509000653 | 49 | 47 | 0.0 | 0.0 | 0.00 | 0.09 | 0.09 | 57 | 1012.5 |
| 20260509000150 | 50 | 46 | 0.0 | 0.0 | 0.00 | 0.09 | 0.09 | 52 | 1012.7 |
| 20260508235647 | 50 | 50 | 0.0 | 0.0 | 0.00 | 0.09 | 0.09 | 52 | 1012.4 |
| 20260508235143 | 51 | 50 | 0.0 | 0.0 | 0.00 | 0.09 | 0.09 | 49 | 1012.4 |
| 20260508234641 | 51 | 47 | 0.0 | 0.0 | 0.00 | 0.09 | 0.09 | 47 | 1012.5 |
| 20260508234137 | 51 | 48 | 0.0 | 0.0 | 0.00 | 0.09 | 0.09 | 46 | 1012.2 |
| 20260508233637 | 52 | 47 | 0.0 | 0.0 | 0.00 | 0.09 | 0.09 | 45 | 1012.4 |
| 20260508233134 | 52 | 35 | 0.0 | 0.0 | 0.00 | 0.09 | 0.09 | 46 | 1012.3 |
| 20260508232631 | 51 | 5 | 0.0 | 0.0 | 0.00 | 0.09 | 0.09 | 46 | 1012.2 |
| 20260508232127 | 52 | 7 | 0.0 | 0.0 | 0.00 | 0.09 | 0.09 | 49 | 1012.3 |
| 20260508231619 | 52 | 1 | 0.0 | 0.0 | 0.00 | 0.09 | 0.09 | 49 | 1012.2 |
| 20260508231115 | 52 | 58 | 0.0 | 0.0 | 0.00 | 0.09 | 0.09 | 46 | 1012.1 |
| 20260508230612 | 52 | 132 | 0.0 | 0.0 | 0.00 | 0.09 | 0.09 | 48 | 1012.2 |
| 20260508230108 | 53 | 36 | 0.0 | 0.0 | 0.00 | 0.09 | 0.09 | 46 | 1012.1 |
| 20260508225606 | 53 | 138 | 0.0 | 1.0 | 0.00 | 0.09 | 0.09 | 42 | 1012.2 |
| 20260508225102 | 54 | 306 | 0.0 | 1.0 | 0.00 | 0.09 | 0.09 | 44 | 1012.3 |
| 20260508224600 | 54 | 102 | 1.0 | 1.0 | 0.00 | 0.09 | 0.09 | 41 | 1012.4 |
| 20260508224057 | 54 | 322 | 0.0 | 2.0 | 0.00 | 0.09 | 0.09 | 42 | 1012.3 |
| 20260508223555 | 54 | 296 | 1.0 | 2.0 | 0.00 | 0.09 | 0.09 | 43 | 1012.3 |
| 20260508223052 | 54 | 170 | 0.0 | 2.0 | 0.00 | 0.09 | 0.09 | 41 | 1012.4 |
| 20260508222550 | 54 | 306 | 0.0 | 1.0 | 0.00 | 0.09 | 0.09 | 41 | 1012.6 |
| 20260508222047 | 55 | 338 | 1.0 | 2.0 | 0.00 | 0.09 | 0.09 | 40 | 1012.6 |
| 20260508221543 | 55 | 328 | 0.0 | 0.0 | 0.00 | 0.09 | 0.09 | 44 | 1012.5 |
| 20260508221039 | 54 | 25 | 0.0 | 1.0 | 0.00 | 0.09 | 0.09 | 46 | 1012.6 |
| 20260508220536 | 55 | 115 | 1.0 | 4.0 | 0.00 | 0.09 | 0.09 | 43 | 1012.6 |
| 20260508220032 | 55 | 297 | 2.0 | 3.0 | 0.00 | 0.09 | 0.09 | 45 | 1012.7 |
| 20260508215529 | 55 | 310 | 0.0 | 1.0 | 0.00 | 0.09 | 0.09 | 42 | 1012.6 |
| 20260508215026 | 55 | 289 | 0.0 | 1.0 | 0.00 | 0.09 | 0.09 | 41 | 1012.6 |
| 20260508214523 | 55 | 302 | 1.0 | 2.0 | 0.00 | 0.09 | 0.09 | 39 | 1012.5 |
| 20260508214019 | 56 | 309 | 5.0 | 6.0 | 0.00 | 0.09 | 0.09 | 39 | 1012.6 |
| 20260508213517 | 57 | 217 | 2.0 | 4.0 | 0.00 | 0.09 | 0.09 | 38 | 1012.8 |
| 20260508213012 | 55 | 236 | 0.0 | 2.0 | 0.00 | 0.09 | 0.09 | 44 | 1012.5 |
| 20260508212504 | 55 | 297 | 2.0 | 2.0 | 0.00 | 0.09 | 0.09 | 43 | 1012.7 |
| 20260508212000 | 57 | 289 | 2.0 | 4.0 | 0.00 | 0.09 | 0.09 | 42 | 1012.7 |
| 20260508211455 | 55 | 107 | 2.0 | 2.0 | 0.00 | 0.09 | 0.09 | 45 | 1012.4 |
| 20260508210952 | 56 | 315 | 2.0 | 3.0 | 0.00 | 0.09 | 0.09 | 46 | 1012.6 |
| 20260508210449 | 56 | 167 | 2.0 | 2.0 | 0.00 | 0.09 | 0.09 | 46 | 1012.8 |
| 20260508205945 | 55 | 311 | 1.0 | 1.0 | 0.00 | 0.09 | 0.09 | 52 | 1012.7 |
| 20260508205443 | 53 | 158 | 0.0 | 0.0 | 0.00 | 0.09 | 0.09 | 50 | 1012.9 |
| 20260508204939 | 53 | 318 | 0.0 | 1.0 | 0.00 | 0.09 | 0.09 | 50 | 1012.8 |
| 20260508204437 | 53 | 301 | 0.0 | 1.0 | 0.00 | 0.09 | 0.09 | 49 | 1013.0 |
| 20260508203931 | 53 | 165 | 0.0 | 1.0 | 0.00 | 0.09 | 0.09 | 46 | 1012.8 |
| 20260508203428 | 54 | 305 | 2.0 | 2.0 | 0.00 | 0.09 | 0.09 | 50 | 1012.8 |
| 20260508202924 | 53 | 306 | 2.0 | 3.0 | 0.00 | 0.09 | 0.09 | 48 | 1013.0 |
| 20260508202422 | 54 | 306 | 0.0 | 2.0 | 0.00 | 0.09 | 0.09 | 45 | 1013.0 |
| 20260508201918 | 55 | 188 | 1.0 | 2.0 | 0.00 | 0.09 | 0.09 | 46 | 1012.9 |
| 20260508201415 | 53 | 108 | 1.0 | 2.0 | 0.00 | 0.09 | 0.09 | 54 | 1013.1 |
| 20260508200912 | 53 | 116 | 1.0 | 1.0 | 0.00 | 0.09 | 0.09 | 54 | 1013.3 |
| 20260508200409 | 52 | 305 | 0.0 | 2.0 | 0.00 | 0.09 | 0.09 | 53 | 1013.0 |
| 20260508195904 | 53 | 304 | 2.0 | 2.0 | 0.00 | 0.09 | 0.09 | 52 | 1013.2 |
| 20260508195401 | 53 | 243 | 1.0 | 2.0 | 0.00 | 0.09 | 0.09 | 53 | 1013.3 |
| 20260508194857 | 55 | 340 | 2.0 | 4.0 | 0.00 | 0.09 | 0.09 | 47 | 1013.3 |
| 20260508194354 | 56 | 316 | 2.0 | 4.0 | 0.00 | 0.09 | 0.09 | 48 | 1013.4 |
| 20260508193851 | 53 | 311 | 1.0 | 3.0 | 0.00 | 0.09 | 0.09 | 54 | 1013.3 |
| 20260508193348 | 53 | 163 | 3.0 | 3.0 | 0.00 | 0.09 | 0.09 | 51 | 1013.2 |
| 20260508192844 | 52 | 292 | 1.0 | 2.0 | 0.00 | 0.09 | 0.09 | 55 | 1013.3 |
| 20260508192342 | 52 | 321 | 1.0 | 3.0 | 0.00 | 0.09 | 0.09 | 56 | 1013.4 |
| 20260508191838 | 55 | 320 | 1.0 | 3.0 | 0.00 | 0.09 | 0.09 | 52 | 1013.4 |
| 20260508191336 | 55 | 303 | 0.0 | 2.0 | 0.00 | 0.09 | 0.09 | 54 | 1013.6 |
| 20260508190833 | 55 | 302 | 2.0 | 2.0 | 0.00 | 0.09 | 0.09 | 55 | 1013.8 |
| 20260508190329 | 53 | 327 | 1.0 | 2.0 | 0.00 | 0.09 | 0.09 | 60 | 1013.6 |
| 20260508185826 | 52 | 252 | 2.0 | 3.0 | 0.00 | 0.09 | 0.09 | 60 | 1013.7 |
| 20260508185323 | 52 | 302 | 0.0 | 1.0 | 0.00 | 0.09 | 0.09 | 62 | 1013.6 |
| 20260508184820 | 52 | 257 | 0.0 | 0.0 | 0.00 | 0.09 | 0.09 | 61 | 1013.6 |
| 20260508184318 | 53 | 92 | 1.0 | 4.0 | 0.00 | 0.09 | 0.09 | 59 | 1013.7 |
| 20260508183815 | 52 | 280 | 0.0 | 1.0 | 0.00 | 0.09 | 0.09 | 61 | 1013.9 |
| 20260508183311 | 50 | 342 | 0.0 | 0.0 | 0.00 | 0.09 | 0.09 | 66 | 1013.9 |
| 20260508182806 | 49 | 201 | 1.0 | 2.0 | 0.00 | 0.09 | 0.09 | 66 | 1014.0 |
| 20260508182306 | 49 | 269 | 1.0 | 2.0 | 0.00 | 0.09 | 0.09 | 62 | 1013.9 |
| 20260508181753 | 50 | 326 | 2.0 | 2.0 | 0.00 | 0.09 | 0.09 | 60 | 1014.0 |
| 20260508181249 | 50 | 179 | 0.0 | 1.0 | 0.00 | 0.09 | 0.09 | 61 | 1014.1 |
| 20260508180747 | 49 | 312 | 1.0 | 2.0 | 0.00 | 0.09 | 0.09 | 62 | 1014.0 |
| 20260508180244 | 49 | 300 | 1.0 | 2.0 | 0.00 | 0.09 | 0.09 | 66 | 1014.0 |
| 20260508175740 | 49 | 246 | 0.0 | 2.0 | 0.00 | 0.09 | 0.09 | 67 | 1013.9 |
| 20260508175236 | 49 | 306 | 1.0 | 2.0 | 0.00 | 0.09 | 0.09 | 63 | 1013.9 |
| 20260508174735 | 50 | 325 | 1.0 | 2.0 | 0.00 | 0.09 | 0.09 | 63 | 1014.0 |
| 20260508174232 | 50 | 109 | 1.0 | 3.0 | 0.00 | 0.09 | 0.09 | 63 | 1013.9 |
| 20260508173727 | 50 | 304 | 1.0 | 3.0 | 0.00 | 0.09 | 0.09 | 64 | 1014.1 |
| 20260508173224 | 49 | 117 | 2.0 | 2.0 | 0.00 | 0.09 | 0.09 | 67 | 1014.1 |
| 20260508172721 | 49 | 299 | 2.0 | 2.0 | 0.00 | 0.09 | 0.09 | 67 | 1014.2 |
| 20260508172218 | 48 | 55 | 2.0 | 3.0 | 0.00 | 0.09 | 0.09 | 67 | 1014.2 |
| 20260508171714 | 47 | 316 | 0.0 | 3.0 | 0.00 | 0.09 | 0.09 | 69 | 1014.0 |
| 20260508171210 | 47 | 100 | 0.0 | 1.0 | 0.00 | 0.09 | 0.09 | 69 | 1014.2 |
| 20260508170708 | 47 | 312 | 1.0 | 2.0 | 0.00 | 0.09 | 0.09 | 70 | 1014.3 |
| 20260508170205 | 47 | 315 | 0.0 | 1.0 | 0.00 | 0.09 | 0.09 | 70 | 1014.2 |
| 20260508165702 | 48 | 303 | 1.0 | 2.0 | 0.00 | 0.09 | 0.09 | 70 | 1014.3 |
| 20260508165159 | 48 | 313 | 0.0 | 0.0 | 0.00 | 0.09 | 0.09 | 71 | 1014.5 |
| 20260508164656 | 47 | 314 | 0.0 | 0.0 | 0.00 | 0.09 | 0.09 | 69 | 1014.3 |
| 20260508164152 | 48 | 310 | 2.0 | 3.0 | 0.00 | 0.09 | 0.09 | 70 | 1014.2 |
| 20260508163650 | 49 | 120 | 2.0 | 3.0 | 0.00 | 0.09 | 0.09 | 68 | 1014.3 |
| 20260508163147 | 50 | 181 | 0.0 | 3.0 | 0.00 | 0.09 | 0.09 | 70 | 1014.3 |
| 20260508162643 | 50 | 301 | 2.0 | 2.0 | 0.00 | 0.09 | 0.09 | 70 | 1014.3 |
| 20260508162140 | 51 | 203 | 2.0 | 6.0 | 0.00 | 0.09 | 0.09 | 69 | 1014.3 |